Norfolk, NE

3:15 PM CDT on April 21, 2018 (GMT -0500)
Stefan Memorial

Weather History for KOFK - June, 2012

Change the Weather History Date:

Sunday, June 3, 2012

  Actual Average Record
Temperature  
Mean Temperature 75 °F 66 °F  
Max Temperature 92 °F 78 °F 99 °F (1931)
Min Temperature 58 °F 55 °F 38 °F (1945)
Degree Days  
Heating Degree Days 0 2  
Month to date heating degree days 12 7  
Since 1 June heating degree days 12 7  
Since 1 July heating degree days 5452 6620  
Cooling Degree Days 10 4  
Month to date cooling degree days 10 10  
Year to date cooling degree days 162 71  
Since 1 June cooling degree days 10 10  
Growing Degree Days 24 (Base 50)    
Moisture  
Dew Point 54 °F    
Average Humidity 49    
Maximum Humidity 66    
Minimum Humidity 32    
Precipitation  
Precipitation T in 0.16 in 2.49 in (1941)
Month to date precipitation 0.02 0.44  
Year to date precipitation 9.98 10.14  
Snow  
Snow 0.00 in 0.00 in - ()
Month to date snowfall 0.0 0.0  
Since 1 July snowfall 15.3 30.5  
Snow Depth 0.00 in    
Sea Level Pressure  
Sea Level Pressure 29.74 in    
Wind  
Wind Speed 9 mph (SSW)    
Max Wind Speed 18 mph    
Max Gust Speed 22 mph    
Visibility 10 miles    
Events      
T = Trace of Precipitation, MM = Missing Value Source: NWS Daily Summary

Daily Weather History Graph

Daily Weather History Graph

Search for Another Location

Airport or City:

Astronomy

Jun. 03, 2012 Rise Set
Actual Time 5:55 AM CDT 9:00 PM CDT
Civil Twilight 5:21 AM CDT 9:34 PM CDT
Nautical Twilight 4:38 AM CDT 10:17 PM CDT
Astronomical Twilight 3:47 AM CDT 11:09 PM CDT
Moon 8:27 PM CDT (6/3) 5:06 AM CDT (6/3)
Length of Visible Light 16h 12m
Length of Day
15h 05m
Waxing Gibbous, 99% of the Moon is Illuminated
Jun 3
Waxing Gibbous
Jun 4
Full
Jun 11
Last Quarter
Jun 19
New
Jun 26
First Quarter

Hourly Weather History & Observations

Time (CDT) Temp. Heat Index Dew Point Humidity Pressure Visibility Wind Dir Wind Speed Gust Speed Precip Events Conditions
12:56 AM 61.0 °F - 45.0 °F 56% 29.76 in 10.0 mi ESE 5.8 mph - N/A   Clear
1:56 AM 59.0 °F - 45.0 °F 60% 29.78 in 10.0 mi ESE 6.9 mph - N/A   Clear
2:56 AM 61.0 °F - 45.0 °F 56% 29.77 in 10.0 mi SE 9.2 mph - N/A   Clear
3:56 AM 60.1 °F - 45.0 °F 57% 29.76 in 10.0 mi ESE 6.9 mph - N/A   Partly Cloudy
4:56 AM 60.1 °F - 46.0 °F 60% 29.76 in 10.0 mi SE 5.8 mph - N/A   Mostly Cloudy
5:56 AM 61.0 °F - 46.0 °F 58% 29.75 in 10.0 mi SE 9.2 mph - N/A   Partly Cloudy
6:56 AM 63.0 °F - 46.0 °F 54% 29.75 in 10.0 mi SE 11.5 mph - N/A   Partly Cloudy
7:56 AM 64.0 °F - 50.0 °F 60% 29.75 in 10.0 mi SSE 9.2 mph - N/A   Mostly Cloudy
8:56 AM 66.9 °F - 53.1 °F 61% 29.75 in 10.0 mi South 11.5 mph - 0.00 in   Partly Cloudy
9:56 AM 71.1 °F - 55.9 °F 59% 29.75 in 10.0 mi South 13.8 mph - N/A   Clear
10:56 AM 77.0 °F - 57.9 °F 52% 29.74 in 10.0 mi SSW 11.5 mph - N/A   Clear
11:56 AM 81.0 °F 81.3 °F 59.0 °F 47% 29.71 in 10.0 mi South 12.7 mph - N/A   Clear
12:56 PM 84.9 °F 84.4 °F 59.0 °F 41% 29.72 in 10.0 mi SSW 10.4 mph - N/A   Clear
1:56 PM 88.0 °F 86.9 °F 57.9 °F 36% 29.71 in 10.0 mi WSW 11.5 mph 16.1 mph N/A   Clear
2:56 PM 89.1 °F 87.7 °F 57.0 °F 34% 29.70 in 10.0 mi SSW 13.8 mph - N/A   Clear
3:56 PM 90.0 °F 89.1 °F 59.0 °F 35% 29.69 in 10.0 mi SW 8.1 mph 18.4 mph N/A   Clear
4:56 PM 91.0 °F 89.7 °F 57.0 °F 32% 29.69 in 10.0 mi West 9.2 mph - N/A   Clear
5:56 PM 91.0 °F 90.0 °F 57.9 °F 33% 29.69 in 10.0 mi WNW 5.8 mph - N/A   Clear
6:56 PM 90.0 °F 88.8 °F 57.9 °F 34% 29.70 in 10.0 mi NNW 13.8 mph - N/A   Clear
7:56 PM 86.0 °F 85.0 °F 57.9 °F 38% 29.73 in 10.0 mi NNW 8.1 mph - N/A   Clear
8:56 PM 79.0 °F - 57.9 °F 48% 29.75 in 10.0 mi NNW 6.9 mph - N/A   Clear
9:56 PM 75.9 °F - 59.0 °F 56% 29.78 in 10.0 mi NW 8.1 mph - N/A   Clear
10:56 PM 72.0 °F - 59.0 °F 64% 29.81 in 7.0 mi WNW 5.8 mph - N/A   Clear
11:56 PM 70.0 °F - 57.9 °F 65% 29.82 in 10.0 mi West 5.8 mph - N/A   Clear